This is the latest recevied weather packets stored in our database for station/object DM4XI-13. If no packets are shown the sender has not sent any weather packets the latest 1 day(s).
| Time | Temp. | Humidity | Pressure | Rain* | Wind** | Luminosity | Snow |
|---|---|---|---|---|---|---|---|
| 1778048953 | 13.33° C | 85% | 1005.1 hPa | 0 mm | 0 m/s | 209 W/m² | - |
| 1778048892 | 13.33° C | 84% | 1005.3 hPa | 0 mm | 0.45 m/s, 186° | 173 W/m² | - |
| 1778048831 | 13.33° C | 85% | 1005 hPa | 0 mm | 0.89 m/s, 179° | 173 W/m² | - |
| 1778048770 | 12.78° C | 85% | 1005 hPa | 0 mm | 0.89 m/s, 177° | 174 W/m² | - |
| 1778048648 | 12.78° C | 85% | 1005.3 hPa | 0 mm | 0.89 m/s, 166° | 172 W/m² | - |
| 1778048587 | 12.78° C | 86% | 1005.1 hPa | 0 mm | 0.45 m/s, 181° | 174 W/m² | - |
| 1778048526 | 12.78° C | 87% | 1005.3 hPa | 0 mm | 0.45 m/s, 198° | 171 W/m² | - |
| 1778048465 | 12.78° C | 87% | 1005.3 hPa | 0 mm | 0.89 m/s, 183° | 178 W/m² | - |
| 1778048282 | 12.22° C | 87% | 1005.4 hPa | 0 mm | 0.45 m/s, 180° | 159 W/m² | - |
| 1778048160 | 12.22° C | 88% | 1005.4 hPa | 0 mm | 0.45 m/s, 176° | 140 W/m² | - |
| 1778048102 | 12.22° C | 88% | 1005.4 hPa | 0 mm | 0.45 m/s, 179° | 134 W/m² | - |
| 1778048038 | 12.22° C | 88% | 1005.3 hPa | 0 mm | 0.89 m/s, 185° | 116 W/m² | - |
| 1778047916 | 12.22° C | 89% | 1005.3 hPa | 0 mm | 0.89 m/s, 183° | 89 W/m² | - |
| 1778047794 | 12.22° C | 89% | 1005.4 hPa | 0 mm | 0.45 m/s, 178° | 82 W/m² | - |
| 1778047733 | 12.22° C | 89% | 1005.3 hPa | 0 mm | 0.45 m/s, 171° | 74 W/m² | - |
| 1778047672 | 12.22° C | 89% | 1005.5 hPa | 0 mm | 0.45 m/s, 173° | 77 W/m² | - |
| 1778047610 | 12.22° C | 89% | 1005.2 hPa | 0 mm | 0.45 m/s, 184° | 74 W/m² | - |
| 1778047550 | 12.22° C | 89% | 1005.4 hPa | 0 mm | 0.45 m/s, 182° | 76 W/m² | - |
| 1778047489 | 12.22° C | 89% | 1005.5 hPa | 0 mm | 0.45 m/s, 183° | 79 W/m² | - |
| 1778047428 | 12.22° C | 89% | 1005.4 hPa | 0 mm | 0.45 m/s, 178° | 81 W/m² | - |
| 1778047367 | 12.22° C | 89% | 1005.6 hPa | 0 mm | 0 m/s | 80 W/m² | - |
| 1778047184 | 12.22° C | 89% | 1005.4 hPa | 0 mm | 0 m/s | 86 W/m² | - |
| 1778047123 | 11.67° C | 89% | 1005.4 hPa | 0 mm | 0.45 m/s, 192° | 86 W/m² | - |
| 1778047001 | 11.67° C | 90% | 1005.4 hPa | 0 mm | 0 m/s | 85 W/m² | - |
| 1778046940 | 11.67° C | 89% | 1005.3 hPa | 0 mm | 0 m/s | 85 W/m² | - |
* Rain latest hour (hover to see other rain measurements)
** Current wind speed in m/s (hover to see current wind gust speed)